DW8522 Weather Reports


Display with metric or nautical units.
time (UTC)temp
F
wind
direction
speed
MPH
gust
MPH
rain 1hr
in
rain 24hr
in
rain mn
in
humidity
%
barometer
mb
20260505014538 68 107 3.0 7.0 0.00 0.00 0.00 66 1031.7
20260505013036 69 125 2.0 6.0 0.00 0.00 0.00 65 1031.8
20260505011547 70 53 1.0 3.0 0.00 0.00 0.00 65 1032.0
20260505010029 69 118 1.0 2.0 0.00 0.00 0.00 64 1032.2
20260505004536 68 80 0.0 3.0 0.00 0.00 0.00 69 1032.5
20260505003023 67 134 1.0 3.0 0.00 0.00 0.00 68 1032.7
20260505001519 68 135 0.0 1.0 0.00 0.00 0.00 67 1033.0
20260505000019 67 113 0.0 2.0 0.00 0.00 0.00 67 1033.1
20260504234518 68 86 1.0 3.0 0.00 0.00 0.00 65 1033.3
20260504233013 67 136 0.0 1.0 0.00 0.00 0.00 65 1033.4
20260504231509 66 123 0.0 2.0 0.00 0.00 0.00 69 1033.6
20260504230006 65 118 1.0 2.0 0.00 0.00 0.00 72 1033.8
20260504224502 64 129 0.0 3.0 0.00 0.00 0.00 73 1033.9
20260504223103 63 143 0.0 2.0 0.00 0.00 0.00 75 1033.9
20260504221606 62 143 0.0 2.0 0.00 0.00 0.00 75 1033.9
20260504220122 62 146 0.0 2.0 0.00 0.00 0.00 77 1033.8
20260504214551 61 154 0.0 3.0 0.00 0.00 0.00 78 1033.8
20260504213100 60 149 0.0 3.0 0.00 0.00 0.00 80 1033.8
20260504211544 59 158 0.0 3.0 0.00 0.00 0.00 80 1033.7
20260504210042 59 146 0.0 3.0 0.00 0.00 0.00 81 1033.8
20260504204557 58 146 0.0 2.0 0.00 0.00 0.00 82 1033.8
20260504203037 57 149 0.0 3.0 0.00 0.00 0.00 84 1033.8
20260504201535 56 143 0.0 2.0 0.00 0.00 0.00 84 1033.8
20260504200042 56 144 0.0 2.0 0.00 0.00 0.00 84 1033.6
20260504194539 55 146 1.0 3.0 0.00 0.00 0.00 84 1033.5
20260504193033 55 143 0.0 2.0 0.00 0.00 0.00 85 1033.4
20260504191536 55 143 0.0 1.0 0.00 0.00 0.00 84 1033.3
20260504190036 56 143 0.0 3.0 0.00 0.00 0.00 84 1033.3
20260504184535 56 146 0.0 3.0 0.00 0.00 0.00 83 1033.2
20260504183033 56 146 0.0 2.0 0.00 0.00 0.00 83 1033.2
20260504181529 56 149 0.0 1.0 0.00 0.00 0.00 83 1033.3
20260504180029 56 151 1.0 3.0 0.00 0.00 0.00 83 1033.3
20260504174527 56 149 0.0 2.0 0.00 0.00 0.00 83 1033.2
20260504173027 56 139 0.0 2.0 0.00 0.00 0.00 83 1033.3
20260504171525 56 139 0.0 1.0 0.00 0.00 0.00 82 1033.3
20260504081549 54 144 0.0 3.0 0.00 0.00 0.00 87 1034.7
20260504044537 65 113 0.0 2.0 0.00 0.00 0.00 66 1033.3
20260504043040 66 96 0.0 5.0 0.00 0.00 0.00 65 1033.3
20260504041533 67 106 1.0 3.0 0.00 0.00 0.00 62 1033.3
20260504040032 67 123 1.0 5.0 0.00 0.00 0.00 62 1033.2
20260504034530 67 96 1.0 3.0 0.00 0.00 0.00 61 1033.3
20260504033029 68 121 1.0 3.0 0.00 0.00 0.00 61 1033.3
20260504031522 68 108 0.0 4.0 0.00 0.00 0.00 60 1033.4
20260504030026 68 77 1.0 5.0 0.00 0.00 0.00 60 1033.4
20260504024520 68 93 2.0 4.0 0.00 0.00 0.00 60 1033.4
20260504023018 67 94 1.0 3.0 0.00 0.00 0.00 63 1033.3
20260504021516 68 110 1.0 3.0 0.00 0.00 0.00 61 1033.4
20260504020014 68 101 1.0 4.0 0.00 0.00 0.00 62 1033.5